Location: Rounton
(54.4000°N, 1.3500°W)
Time: 03:04:20
(UTC+00:00)

Envisat - Pass Details

Date: 27 October 2021
Orbit: 764 x 766 km, 98.2° (Epoch: 28 November)

Event Time Altitude Azimuth Distance (km) Brightness Sun altitude
Rises 05:04:09 0° 23° (NNE) 3,247 6.8 -25.6°
Reaches altitude 10° 05:07:02 10° 40° (NE) 2,314 6.2 -25.2°
Maximum altitude 05:10:51 21° 89° (E) 1,684 5.5 -24.7°
Drops below altitude 10° 05:14:37 10° 137° (SE) 2,301 5.8 -24.1°
Sets 05:17:28 0° 153° (SSE) 3,221 6.4 -23.7°
